| time (UTC) | temp C | wind direction | speed KPH | gust KPH | rain 1hr cm | rain 24hr cm | rain mn cm | humidity % | barometer mb |
| 20260502181624 | 25 | 85 | 0.0 | 6.4 | 0.00 | 3.00 | 0.00 | 51 | 1018.3 |
| 20260502181118 | 24 | 92 | 1.6 | 6.4 | 0.00 | 3.00 | 0.00 | 50 | 1018.3 |
| 20260502180612 | 24 | 347 | 4.8 | 6.4 | 0.00 | 3.25 | 0.00 | 49 | 1018.3 |
| 20260502180326 | 24 | 148 | 0.0 | 4.8 | 0.00 | 3.56 | 0.00 | 50 | 1018.6 |
| 20260502170505 | 23 | 101 | 0.0 | 6.4 | 0.00 | 4.22 | 0.00 | 56 | 1019.0 |
| 20260502163935 | 22 | 139 | 0.0 | 16.1 | 0.00 | 4.24 | 0.00 | 58 | 1018.6 |
| 20260502163435 | 22 | 127 | 0.0 | 16.1 | 0.00 | 4.27 | 0.00 | 57 | 1018.6 |
| 20260502162929 | 22 | 117 | 0.0 | 6.4 | 0.00 | 4.27 | 0.00 | 60 | 1018.6 |
| 20260502162423 | 22 | 79 | 3.2 | 9.7 | 0.00 | 4.29 | 0.00 | 59 | 1018.6 |
| 20260502161914 | 21 | 111 | 1.6 | 9.7 | 0.00 | 4.29 | 0.00 | 59 | 1019.0 |
| 20260502161414 | 22 | 126 | 1.6 | 6.4 | 0.00 | 4.45 | 0.00 | 59 | 1018.6 |
| 20260502160907 | 22 | 73 | 1.6 | 6.4 | 0.00 | 4.72 | 0.00 | 60 | 1019.0 |
| 20260502160400 | 21 | 99 | 0.0 | 9.7 | 0.00 | 4.90 | 0.00 | 64 | 1018.6 |
| 20260502152315 | 20 | 145 | 0.0 | 11.3 | 0.00 | 4.93 | 0.00 | 69 | 1018.6 |
| 20260502151808 | 19 | 89 | 0.0 | 11.3 | 0.00 | 4.93 | 0.00 | 69 | 1018.6 |
| 20260502151307 | 18 | 52 | 0.0 | 9.7 | 0.00 | 4.93 | 0.00 | 69 | 1018.6 |
| 20260502150253 | 18 | 281 | 3.2 | 6.4 | 0.00 | 4.93 | 0.00 | 70 | 1018.6 |
| 20260502130538 | 14 | 93 | 0.0 | 3.2 | 0.00 | 5.05 | 0.00 | 84 | 1017.3 |
| 20260502123454 | 13 | 120 | 0.0 | 3.2 | 0.00 | 5.08 | 0.00 | 89 | 1016.9 |
| 20260502122946 | 12 | 91 | 0.0 | 1.6 | 0.00 | 5.08 | 0.00 | 90 | 1016.9 |
| 20260502122434 | 12 | 97 | 0.0 | 3.2 | 0.00 | 5.11 | 0.00 | 90 | 1016.9 |
| 20260502121929 | 12 | 76 | 0.0 | 3.2 | 0.00 | 5.16 | 0.00 | 89 | 1016.9 |
| 20260502121420 | 12 | 76 | 1.6 | 3.2 | 0.00 | 5.16 | 0.00 | 89 | 1016.6 |
| 20260502121134 | 12 | 83 | 3.2 | 3.2 | 0.00 | 5.16 | 0.00 | 90 | 1016.6 |
| 20260502115855 | 12 | 90 | 1.6 | 3.2 | 0.00 | 5.16 | 0.00 | 89 | 1016.6 |
| 20260502115611 | 12 | 83 | 0.0 | 3.2 | 0.00 | 5.16 | 0.00 | 91 | 1016.6 |
| 20260502114842 | 12 | 108 | 0.0 | 0.0 | 0.00 | 5.16 | 0.00 | 90 | 1016.6 |
| 20260502113834 | 12 | 134 | 0.0 | 1.6 | 0.00 | 5.16 | 0.00 | 90 | 1016.6 |
| 20260502113325 | 12 | 126 | 0.0 | 1.6 | 0.00 | 5.16 | 0.00 | 90 | 1016.6 |
| 20260502112819 | 12 | 123 | 0.0 | 0.0 | 0.00 | 5.16 | 0.00 | 89 | 1016.3 |
| 20260502112317 | 12 | 116 | 0.0 | 1.6 | 0.00 | 5.16 | 0.00 | 89 | 1016.3 |
| 20260502112029 | 12 | 110 | 0.0 | 1.6 | 0.00 | 5.16 | 0.00 | 88 | 1016.3 |
| 20260502111301 | 13 | 115 | 0.0 | 6.4 | 0.00 | 5.16 | 0.00 | 88 | 1016.3 |
| 20260502110756 | 12 | 75 | 1.6 | 6.4 | 0.00 | 5.16 | 0.00 | 89 | 1015.9 |
| 20260502110252 | 12 | 148 | 1.6 | 9.7 | 0.00 | 5.16 | 0.00 | 88 | 1015.9 |
| 20260502105747 | 12 | 51 | 3.2 | 9.7 | 0.00 | 5.16 | 0.00 | 88 | 1015.9 |
| 20260502105506 | 12 | 66 | 0.0 | 3.2 | 0.00 | 5.16 | 0.00 | 88 | 1015.9 |
| 20260502104734 | 12 | 51 | 0.0 | 3.2 | 0.00 | 5.16 | 0.00 | 88 | 1015.9 |
| 20260502104448 | 13 | 103 | 1.6 | 3.2 | 0.00 | 5.18 | 0.00 | 89 | 1015.9 |
| 20260502103727 | 12 | 118 | 1.6 | 1.6 | 0.00 | 5.18 | 0.00 | 88 | 1015.9 |
| 20260502103218 | 12 | 126 | 0.0 | 1.6 | 0.00 | 5.18 | 0.00 | 88 | 1015.6 |
| 20260502102710 | 12 | 94 | 0.0 | 4.8 | 0.00 | 5.18 | 0.00 | 88 | 1015.6 |
| 20260502102213 | 13 | 116 | 0.0 | 4.8 | 0.00 | 5.23 | 0.00 | 88 | 1015.6 |
| 20260502101704 | 12 | 37 | 3.2 | 4.8 | 0.00 | 5.23 | 0.00 | 87 | 1015.6 |
| 20260502101157 | 12 | 129 | 3.2 | 3.2 | 0.00 | 5.23 | 0.00 | 88 | 1015.6 |
| 20260502100652 | 12 | 174 | 0.0 | 3.2 | 0.00 | 5.26 | 0.00 | 88 | 1015.2 |
| 20260502100148 | 12 | 117 | 0.0 | 0.0 | 0.00 | 5.26 | 0.00 | 88 | 1015.2 |
| 20260502091049 | 13 | 80 | 0.0 | 3.2 | 0.00 | 5.79 | 0.00 | 85 | 1014.6 |
| 20260502090543 | 13 | 116 | 0.0 | 4.8 | 0.00 | 5.84 | 0.00 | 86 | 1014.6 |
| 20260502071343 | 13 | 43 | 1.6 | 3.2 | 0.00 | 5.89 | 0.00 | 90 | 1014.2 |
| 20260502070835 | 13 | 82 | 0.0 | 3.2 | 0.00 | 5.89 | 0.00 | 90 | 1014.2 |
| 20260502070328 | 13 | 85 | 0.0 | 4.8 | 0.00 | 5.89 | 0.00 | 90 | 1014.6 |
| 20260502070044 | 13 | 69 | 1.6 | 4.8 | 0.00 | 5.89 | 0.00 | 89 | 1014.2 |
| 20260502065320 | 13 | 52 | 1.6 | 4.8 | 0.00 | 5.89 | 0.00 | 90 | 1014.6 |
| 20260502064813 | 13 | 81 | 1.6 | 4.8 | 0.00 | 5.89 | 0.00 | 91 | 1014.6 |
| 20260502064533 | 13 | 42 | 1.6 | 4.8 | 0.00 | 5.89 | 0.00 | 91 | 1014.2 |
| 20260502063758 | 13 | 148 | 1.6 | 4.8 | 0.00 | 5.89 | 0.00 | 91 | 1014.2 |
| 20260502063252 | 13 | 106 | 0.0 | 3.2 | 0.00 | 5.89 | 0.00 | 92 | 1013.9 |
| 20260502062748 | 13 | 96 | 0.0 | 3.2 | 0.00 | 5.89 | 0.00 | 92 | 1013.9 |
| 20260502062240 | 13 | 155 | 0.0 | 3.2 | 0.00 | 5.89 | 0.00 | 93 | 1013.9 |
| 20260502061740 | 13 | 110 | 0.0 | 6.4 | 0.00 | 5.89 | 0.00 | 93 | 1013.9 |
| 20260502061453 | 13 | 48 | 1.6 | 11.3 | 0.00 | 5.89 | 0.00 | 93 | 1013.9 |
| 20260502060726 | 13 | 88 | 6.4 | 11.3 | 0.00 | 5.89 | 0.00 | 93 | 1013.9 |
| 20260502060219 | 13 | 93 | 0.0 | 4.8 | 0.00 | 5.89 | 0.00 | 93 | 1013.9 |
| 20260502055720 | 13 | 118 | 0.0 | 11.3 | 0.00 | 5.89 | 0.00 | 93 | 1013.6 |
| 20260502055432 | 13 | 77 | 0.0 | 11.3 | 0.00 | 5.89 | 0.00 | 93 | 1013.9 |
| 20260502054930 | 13 | 293 | 1.6 | 9.7 | 0.00 | 5.89 | 0.00 | 93 | 1013.9 |
| 20260502054157 | 13 | 98 | 0.0 | 9.7 | 0.00 | 5.89 | 0.00 | 93 | 1013.9 |
| 20260502053657 | 13 | 58 | 0.0 | 9.7 | 0.00 | 5.89 | 0.00 | 93 | 1013.9 |
| 20260502053150 | 13 | 95 | 3.2 | 6.4 | 0.00 | 5.89 | 0.00 | 93 | 1013.9 |
| 20260502052643 | 13 | 59 | 0.0 | 4.8 | 0.00 | 5.89 | 0.00 | 94 | 1013.9 |
| 20260502052136 | 13 | 41 | 3.2 | 12.9 | 0.00 | 5.89 | 0.00 | 94 | 1013.9 |
| 20260502051636 | 13 | 89 | 3.2 | 12.9 | 0.00 | 6.02 | 0.00 | 94 | 1013.9 |
| 20260502051129 | 13 | 112 | 1.6 | 9.7 | 0.00 | 6.02 | 0.00 | 94 | 1013.9 |
| 20260502050623 | 13 | 87 | 0.0 | 6.4 | 0.00 | 6.05 | 0.00 | 94 | 1013.6 |
| 20260502050115 | 13 | 61 | 1.6 | 16.1 | 0.00 | 6.15 | 0.00 | 94 | 1013.6 |
| 20260502045837 | 13 | 111 | 3.2 | 16.1 | 0.00 | 6.15 | 6.15 | 94 | 1013.6 |
| 20260502045106 | 13 | 69 | 0.0 | 3.2 | 0.00 | 6.15 | 6.15 | 94 | 1013.6 |
| 20260502044559 | 13 | 72 | 1.6 | 9.7 | 0.00 | 6.15 | 6.15 | 94 | 1013.6 |
| 20260502044053 | 13 | 78 | 0.0 | 9.7 | 0.00 | 6.15 | 6.15 | 94 | 1013.9 |
| 20260502043549 | 13 | 127 | 0.0 | 3.2 | 0.00 | 6.15 | 6.15 | 95 | 1013.9 |
| 20260502043036 | 13 | 106 | 0.0 | 3.2 | 0.00 | 6.15 | 6.15 | 95 | 1013.9 |
| 20260502042529 | 13 | 83 | 1.6 | 3.2 | 0.00 | 6.15 | 6.15 | 95 | 1013.9 |
| 20260502042021 | 13 | 102 | 0.0 | 3.2 | 0.00 | 6.15 | 6.15 | 95 | 1013.9 |
| 20260502041514 | 13 | 128 | 0.0 | 4.8 | 0.00 | 6.15 | 6.15 | 95 | 1013.6 |
| 20260502041016 | 13 | 148 | 1.6 | 4.8 | 0.00 | 6.15 | 6.15 | 95 | 1013.6 |
| 20260502040508 | 13 | 69 | 0.0 | 4.8 | 0.05 | 6.15 | 6.15 | 95 | 1013.6 |
| 20260502040002 | 13 | 82 | 0.0 | 6.4 | 0.05 | 6.15 | 6.15 | 95 | 1013.9 |
| 20260502035716 | 13 | 112 | 0.0 | 6.4 | 0.05 | 6.15 | 6.15 | 95 | 1013.9 |
| 20260502034952 | 13 | 99 | 3.2 | 6.4 | 0.05 | 6.15 | 6.15 | 95 | 1013.9 |
| 20260502034445 | 13 | 113 | 0.0 | 11.3 | 0.05 | 6.15 | 6.15 | 95 | 1013.9 |
| 20260502033940 | 14 | 94 | 0.0 | 11.3 | 0.05 | 6.15 | 6.15 | 95 | 1013.6 |
| 20260502033656 | 13 | 109 | 0.0 | 3.2 | 0.05 | 6.15 | 6.15 | 95 | 1013.6 |
| 20260502033156 | 13 | 127 | 0.0 | 6.4 | 0.05 | 6.15 | 6.15 | 95 | 1013.6 |
| 20260502032425 | 13 | 99 | 0.0 | 6.4 | 0.05 | 6.15 | 6.15 | 95 | 1013.6 |
| 20260502032142 | 13 | 30 | 0.0 | 4.8 | 0.08 | 6.15 | 6.15 | 95 | 1013.2 |
| 20260502031411 | 13 | 103 | 1.6 | 4.8 | 0.08 | 6.15 | 6.15 | 95 | 1012.9 |
| 20260502030910 | 13 | 120 | 0.0 | 3.2 | 0.08 | 6.15 | 6.15 | 95 | 1013.2 |
| 20260502030402 | 13 | 286 | 1.6 | 6.4 | 0.08 | 6.10 | 6.10 | 95 | 1012.5 |
| 20260502030115 | 13 | 90 | 0.0 | 6.4 | 0.08 | 6.10 | 6.10 | 95 | 1012.2 |
| 20260502025350 | 13 | 97 | 0.0 | 4.8 | 0.08 | 6.10 | 6.10 | 95 | 1012.2 |
| 20260502024844 | 13 | 118 | 0.0 | 4.8 | 0.08 | 6.10 | 6.10 | 95 | 1012.2 |
| 20260502024337 | 14 | 119 | 1.6 | 3.2 | 0.10 | 6.10 | 6.10 | 95 | 1012.2 |
| 20260502023828 | 14 | 52 | 1.6 | 4.8 | 0.10 | 6.10 | 6.10 | 95 | 1012.2 |
| 20260502023539 | 14 | 81 | 1.6 | 4.8 | 0.13 | 6.10 | 6.10 | 95 | 1012.2 |
| 20260502022820 | 14 | 65 | 1.6 | 12.9 | 0.13 | 6.10 | 6.10 | 95 | 1011.9 |
| 20260502022311 | 14 | 123 | 0.0 | 12.9 | 0.13 | 6.10 | 6.10 | 95 | 1011.9 |
| 20260502021802 | 14 | 100 | 1.6 | 4.8 | 0.13 | 6.07 | 6.07 | 95 | 1011.9 |
| 20260502021255 | 14 | 298 | 1.6 | 3.2 | 0.15 | 6.07 | 6.07 | 95 | 1012.2 |
| 20260502021021 | 15 | 61 | 3.2 | 3.2 | 0.18 | 6.02 | 6.02 | 95 | 1012.2 |
| 20260502020245 | 15 | 61 | 3.2 | 6.4 | 0.18 | 6.02 | 6.02 | 95 | 1011.9 |
| 20260502015739 | 15 | 109 | 0.0 | 6.4 | 0.20 | 6.02 | 6.02 | 95 | 1011.5 |
| 20260502015451 | 15 | 127 | 0.0 | 3.2 | 0.20 | 6.02 | 6.02 | 95 | 1011.9 |
| 20260502014730 | 15 | 85 | 1.6 | 4.8 | 0.18 | 5.99 | 6.02 | 95 | 1011.9 |
| 20260502014221 | 15 | 109 | 0.0 | 4.8 | 0.18 | 5.99 | 5.99 | 95 | 1011.9 |
| 20260502013714 | 15 | 111 | 0.0 | 1.6 | 0.20 | 5.99 | 5.99 | 95 | 1011.5 |
| 20260502012705 | 15 | 100 | 1.6 | 3.2 | 0.20 | 5.97 | 5.97 | 95 | 1011.2 |
| 20260502012420 | 15 | 75 | 0.0 | 3.2 | 0.18 | 5.94 | 5.97 | 95 | 1011.2 |
| 20260502011649 | 15 | 84 | 0.0 | 3.2 | 0.18 | 5.94 | 5.94 | 95 | 1010.8 |
| 20260502011142 | 15 | 125 | 0.0 | 0.0 | 0.15 | 5.92 | 5.92 | 95 | 1010.8 |
| 20260502010641 | 15 | 106 | 0.0 | 1.6 | 0.08 | 5.84 | 5.84 | 95 | 1010.8 |
| 20260502010133 | 15 | 106 | 0.0 | 1.6 | 0.13 | 5.84 | 5.84 | 95 | 1010.8 |
| 20260502005625 | 15 | 116 | 0.0 | 6.4 | 0.10 | 5.82 | 5.82 | 95 | 1011.5 |
| 20260502005118 | 15 | 82 | 1.6 | 6.4 | 0.10 | 5.82 | 5.82 | 95 | 1010.8 |
| 20260502004834 | 15 | 95 | 1.6 | 4.8 | 0.10 | 5.82 | 5.82 | 95 | 1010.5 |
| 20260502004109 | 15 | 103 | 0.0 | 1.6 | 0.13 | 5.82 | 5.82 | 95 | 1010.2 |
| 20260502003600 | 15 | 109 | 0.0 | 4.8 | 0.10 | 5.79 | 5.79 | 95 | 1009.8 |
| 20260502003053 | 15 | 97 | 0.0 | 4.8 | 0.10 | 5.79 | 5.79 | 95 | 1009.8 |
| 20260502002758 | 15 | 102 | 0.0 | 3.2 | 0.08 | 5.77 | 5.77 | 95 | 1009.8 |
| 20260502002034 | -17 | 0.0 | 0.0 | 0.08 | 5.77 | 5.77 | 1010.2 | ||
| 20260502001530 | -17 | 0.0 | 0.0 | 0.08 | 5.77 | 5.77 | 1010.2 | ||
| 20260502001024 | 15 | 119 | 0.0 | 0.0 | 0.08 | 5.77 | 5.77 | 95 | 1010.2 |
| 20260502000520 | 15 | 110 | 0.0 | 0.0 | 0.05 | 5.74 | 5.74 | 95 | 1010.2 |
| 20260502000011 | -17 | 0.0 | 0.0 | 0.03 | 5.71 | 5.71 | 1009.8 | ||
| 20260501235505 | -17 | 0.0 | 1.6 | 0.08 | 5.71 | 5.71 | 1010.2 | ||
| 20260501235000 | 15 | 68 | 0.0 | 1.6 | 0.08 | 5.71 | 5.71 | 95 | 1010.5 |
| 20260501234724 | 15 | 68 | 0.0 | 6.4 | 0.08 | 5.71 | 5.71 | 95 | 1010.5 |
| 20260501233952 | 15 | 91 | 1.6 | 9.7 | 0.05 | 5.69 | 5.69 | 95 | 1009.8 |
| 20260501233442 | 15 | 95 | 3.2 | 9.7 | 0.05 | 5.69 | 5.69 | 95 | 1008.8 |
| 20260501232934 | 15 | 113 | 0.0 | 3.2 | 0.05 | 5.69 | 5.69 | 95 | 1008.5 |
| 20260501232411 | -17 | 0.0 | 0.0 | 0.05 | 5.69 | 5.69 | 1009.1 | ||
| 20260501231906 | -17 | 0.0 | 0.0 | 0.05 | 5.69 | 5.69 | 1009.1 | ||
| 20260501231401 | -17 | 0.0 | 6.4 | 0.05 | 5.69 | 5.69 | 1009.1 | ||
| 20260501231118 | 16 | 90 | 4.8 | 6.4 | 0.08 | 5.69 | 5.69 | 95 | 1009.8 |
| 20260501230334 | 16 | 90 | 4.8 | 6.4 | 0.08 | 5.69 | 5.69 | 95 | 1009.5 |
| 20260501225826 | 16 | 90 | 4.8 | 6.4 | 0.18 | 5.69 | 5.69 | 95 | 1009.1 |
| 20260501225319 | 16 | 50 | 0.0 | 9.7 | 0.15 | 5.64 | 5.64 | 95 | 1009.1 |
| 20260501224814 | 16 | 285 | 3.2 | 9.7 | 0.15 | 5.64 | 5.64 | 95 | 1009.1 |
| 20260501224312 | 16 | 87 | 1.6 | 4.8 | 0.18 | 5.64 | 5.64 | 95 | 1008.5 |
| 20260501223806 | 16 | 113 | 0.0 | 4.8 | 0.30 | 5.64 | 5.64 | 95 | 1008.8 |
| 20260501223257 | 16 | 81 | 0.0 | 6.4 | 0.30 | 5.64 | 5.64 | 95 | 1008.8 |
| 20260501222750 | 16 | 61 | 0.0 | 6.4 | 0.30 | 5.64 | 5.64 | 95 | 1008.5 |
| 20260501222240 | 16 | 117 | 0.0 | 6.4 | 0.30 | 5.64 | 5.64 | 95 | 1008.5 |
| 20260501221731 | 16 | 74 | 3.2 | 3.2 | 0.33 | 5.64 | 5.64 | 95 | 1008.5 |
| 20260501221224 | 16 | 124 | 1.6 | 6.4 | 0.36 | 5.64 | 5.64 | 95 | 1008.8 |
| 20260501220947 | 16 | 117 | 1.6 | 6.4 | 0.36 | 5.61 | 5.61 | 95 | 1008.8 |
| 20260501220214 | 16 | 62 | 0.0 | 1.6 | 0.36 | 5.59 | 5.59 | 95 | 1008.8 |
| 20260501215708 | 16 | 82 | 0.0 | 6.4 | 0.30 | 5.51 | 5.51 | 95 | 1009.1 |
| 20260501215421 | 16 | 94 | 1.6 | 6.4 | 0.30 | 5.49 | 5.49 | 96 | 1009.1 |
| 20260501214656 | 17 | 153 | 1.6 | 3.2 | 0.33 | 5.49 | 5.49 | 96 | 1009.1 |
| 20260501214152 | 17 | 127 | 0.0 | 0.0 | 0.18 | 5.33 | 5.33 | 96 | 1009.1 |
| 20260501213905 | 17 | 127 | 0.0 | 0.0 | 0.33 | 5.33 | 5.33 | 96 | 1009.1 |
| 20260501213135 | -17 | 0.0 | 0.0 | 0.33 | 5.33 | 5.33 | 1009.1 | ||
| 20260501212629 | 16 | 123 | 0.0 | 1.6 | 0.33 | 5.33 | 5.33 | 95 | 1009.5 |
| 20260501212349 | 16 | 123 | 0.0 | 1.6 | 0.33 | 5.33 | 5.33 | 95 | 1009.1 |
| 20260501211621 | 16 | 104 | 0.0 | 1.6 | 0.53 | 5.31 | 5.31 | 95 | 1009.1 |
| 20260501211114 | 16 | 125 | 0.0 | 6.4 | 0.51 | 5.28 | 5.28 | 95 | 1009.1 |
| 20260501210605 | 16 | 94 | 0.0 | 6.4 | 0.53 | 5.26 | 5.26 | 95 | 1008.5 |
| 20260501210051 | 16 | 39 | 1.6 | 9.7 | 0.51 | 5.23 | 5.23 | 95 | 1008.1 |
| 20260501205545 | 16 | 58 | 3.2 | 12.9 | 0.48 | 5.21 | 5.21 | 95 | 1007.8 |
| 20260501205038 | 16 | 100 | 0.0 | 12.9 | 0.46 | 5.18 | 5.18 | 95 | 1007.8 |
| 20260501204533 | 16 | 82 | 1.6 | 1.6 | 0.43 | 5.16 | 5.16 | 96 | 1007.5 |
| 20260501204024 | 16 | 82 | 1.6 | 1.6 | 0.43 | 5.16 | 5.16 | 96 | 1007.5 |
| 20260501203517 | 17 | 83 | 0.0 | 1.6 | 0.28 | 5.00 | 5.00 | 96 | 1008.1 |
| 20260501203011 | -17 | 0.0 | 0.0 | 0.30 | 5.00 | 5.00 | 1008.5 | ||
| 20260501202507 | 17 | 186 | 0.0 | 1.6 | 0.30 | 5.00 | 5.00 | 95 | 1008.1 |
| 20260501202223 | 17 | 186 | 0.0 | 1.6 | 0.36 | 5.00 | 5.00 | 95 | 1008.5 |
| 20260501201459 | 17 | 58 | 0.0 | 4.8 | 0.43 | 4.78 | 4.78 | 95 | 1008.8 |
| 20260501195943 | 17 | 24 | 1.6 | 3.2 | 0.46 | 4.72 | 4.72 | 96 | 1007.5 |
| 20260501195436 | 17 | 110 | 0.0 | 9.7 | 0.46 | 4.72 | 4.72 | 96 | 1007.5 |
| 20260501194928 | 17 | 98 | 0.0 | 9.7 | 0.48 | 4.72 | 4.72 | 96 | 1007.5 |
| 20260501194421 | 17 | 117 | 0.0 | 4.8 | 0.48 | 4.72 | 4.72 | 96 | 1007.5 |
| 20260501193921 | 17 | 109 | 0.0 | 4.8 | 0.64 | 4.72 | 4.72 | 96 | 1007.1 |
| 20260501193413 | 17 | 89 | 1.6 | 4.8 | 1.19 | 4.70 | 4.72 | 96 | 1007.1 |
| 20260501192908 | 17 | 113 | 0.0 | 3.2 | 1.55 | 4.70 | 4.70 | 96 | 1007.5 |
| 20260501192359 | 17 | 77 | 0.0 | 4.8 | 1.55 | 4.70 | 4.70 | 96 | 1007.1 |
| 20260501191857 | 17 | 98 | 1.6 | 4.8 | 1.42 | 4.57 | 4.60 | 95 | 1007.5 |
| 20260501190843 | 17 | 82 | 0.0 | 6.4 | 1.19 | 4.27 | 4.27 | 96 | 1008.1 |
| 20260501190336 | 17 | 64 | 1.6 | 6.4 | 1.50 | 4.27 | 4.27 | 96 | 1007.8 |
| 20260501185838 | 17 | 119 | 0.0 | 4.8 | 1.80 | 4.27 | 4.27 | 96 | 1007.5 |
| 20260501185329 | 17 | 171 | 1.6 | 4.8 | 1.96 | 4.27 | 4.27 | 96 | 1007.5 |
| 20260501184823 | 17 | 66 | 1.6 | 4.8 | 1.96 | 4.24 | 4.24 | 96 | 1007.8 |
| 20260501184318 | 17 | 145 | 0.0 | 4.8 | 1.96 | 4.24 | 4.24 | 96 | 1007.5 |
| 20260501183814 | 17 | 116 | 0.0 | 4.8 | 1.68 | 3.94 | 4.06 | 95 | 1007.8 |
| 20260501183308 | 17 | 116 | 0.0 | 0.0 | 1.35 | 3.38 | 3.38 | 95 | 1008.5 |
| 20260501182801 | 17 | 196 | 0.0 | 0.0 | 1.14 | 3.15 | 3.15 | 95 | 1009.1 |